Weather in Vitim

Russia / Sakha (Yakutia) Republic     59°25′46″N   112°33′28″E
temp.,
°C
wind,
m/s
gust,
m/s
humid.,
%
clouds,
%
prec.,
mm/h
press.,
hPa
HPBL,
m
10 may, mon
mon1000:00+3nne22915 0.0 101422
03:00+1ne239164 0.0 101548
06:00+2nne259299 0.0 101599
09:00+7ne377596 0.0 1014354
12:00+12ene355025 0.0 10131750
15:00+12ne234987 0.4 10131613
18:00+12n235119 0.6 10131353
21:00+7n4981100 1.5 1014309
11 may, tue
tue1100:00+6n3791100 0.3 1015529
03:00+5nne2792100 0.8 1015692
06:00+3nnw2598100 0.2 1016459
09:00+2nnw2699100 0.8 1017460
12:00+2nne3795100 0.4 1017502
15:00+3nne4685100 0.8 1017807
18:00+4nne4677100 0.6 1018940
21:00+2nne3685100 0.7 1019595
12 may, wed
wed1200:000n2798100 0.1 1018360
03:000nne3997100 0.9 1017536
06:00−1nne41096100 0.7 1017556
09:00+1nne5990100 1.3 1017710
12:00+2nne5882100 0.5 1016911
15:00+4ne4772100 0.9 10161140
18:00+4ne3665100 0.1 10161198
21:00+3ne257298 0.2 1017165
13 may, thu
thu1300:000n258386 0.0 1018105
03:00−1n2284100 0.0 101845
06:00−1n2380100 0.0 101875
09:00+4nne245550 0.0 1018661
12:00+8nne234179 0.0 10161873
15:00+10n233596 0.0 10152127
18:00+10nnw133376 0.0 10142179
21:00+6nw125281 0.0 101514
14 may, fri
fri1400:00+3ssw116014 0.0 101510
03:00+1s22756 0.0 101512
06:000s22825 0.0 101543
09:00+6ssw23575 0.0 1013389
12:00+11sw23375 0.0 10111904
15:00+12ssw343110 0.0 10092341
18:00+13ssw343023 0.0 10072354
21:00+9sse275085 0.0 1006165